GW2085 Weather Reports


Display with metric or nautical units.
time (UTC)temp
F
wind
direction
speed
MPH
gust
MPH
rain 1hr
in
rain 24hr
in
rain mn
in
humidity
%
barometer
mb
20260906113054 70 0 0.0 0.0 0.00 0.00 0.00 74 1012.1
20260906111603 70 0 0.0 1.0 0.00 0.00 0.00 73 1012.3
20260906110100 71 0 0.0 1.0 0.00 0.00 0.00 73 1012.4
20260906104630 70 0 0.0 0.0 0.00 0.00 0.00 70 1012.3
20260906103054 70 0 0.0 0.0 0.00 0.00 0.00 73 1012.4
20260906101603 71 0 0.0 0.0 0.00 0.00 0.00 74 1012.2
20260906100056 71 0 0.0 0.0 0.00 0.00 0.00 72 1012.4
20260906094555 71 0 0.0 0.0 0.00 0.00 0.00 70 1012.4
20260906093113 71 0 0.0 1.0 0.00 0.00 0.00 68 1012.4
20260906091558 71 0 0.0 0.0 0.00 0.00 0.00 71 1012.3
20260906090100 71 0 0.0 0.0 0.00 0.00 0.00 70 1012.5
20260906084556 71 0 0.0 0.0 0.00 0.00 0.00 68 1012.7
20260906083053 71 0 0.0 0.0 0.00 0.00 0.00 67 1012.7
20260906081600 72 0 0.0 1.0 0.00 0.00 0.00 63 1012.8
20260906080059 73 240 0.0 0.0 0.00 0.00 0.00 54 1012.8
20260906074556 74 0 0.0 0.0 0.00 0.00 0.00 46 1012.8
20260906073106 74 0 0.0 0.0 0.00 0.00 0.00 47 1012.9
20260906071601 75 0 0.0 0.0 0.00 0.00 0.00 45 1012.9
20260906070057 75 0 0.0 0.0 0.00 0.00 0.00 43 1012.8
20260906064554 75 0 0.0 0.0 0.00 0.00 0.00 44 1012.7
20260906063056 75 0 0.0 0.0 0.00 0.00 0.00 42 1012.7
20260906061601 75 0 0.0 1.0 0.00 0.00 0.00 42 1012.9
20260906060053 75 0 0.0 0.0 0.00 0.00 0.00 44 1012.5
20260906054608 76 0 0.0 0.0 0.00 0.00 0.00 44 1012.8
20260906053056 76 0 0.0 0.0 0.00 0.00 0.00 42 1012.9
20260906051603 76 0 0.0 0.0 0.00 0.00 0.00 42 1012.8
20260906050122 76 0 0.0 1.0 0.00 0.00 0.00 41 1012.8
20260906044559 76 0 0.0 0.0 0.00 0.00 0.00 41 1012.9
20260906043103 76 0 0.0 0.0 0.00 0.00 0.00 42 1012.8
20260906041601 77 0 0.0 0.0 0.00 0.00 0.00 41 1012.9
20260906040128 77 0 0.0 0.0 0.00 0.00 0.00 40 1012.7
20260906034557 78 0 0.0 1.0 0.00 0.00 0.00 38 1012.7
20260906033110 79 0 0.0 1.0 0.00 0.00 0.00 36 1012.6
20260906031601 79 0 0.0 2.0 0.00 0.00 0.00 37 1012.5
20260906024617 80 316 0.0 2.0 0.00 0.00 0.00 33 1012.3
20260906023101 81 354 1.0 3.0 0.00 0.00 0.00 31 1012.2
20260906021558 82 310 0.0 3.0 0.00 0.00 0.00 28 1012.1
20260906020105 83 0 0.0 4.0 0.00 0.00 0.00 29 1012.2
20260906014609 84 303 1.0 4.0 0.00 0.00 0.00 28 1012.2
20260906013057 87 294 0.0 4.0 0.00 0.00 0.00 29 1012.1
20260906011602 88 311 2.0 5.0 0.00 0.00 0.00 30 1012.1
20260906010056 89 304 2.0 4.0 0.00 0.00 0.00 30 1012.0
20260906004600 91 254 1.0 5.0 0.00 0.00 0.00 30 1011.9
20260906003059 91 309 2.0 6.0 0.00 0.00 0.00 29 1011.8
20260906001607 92 311 3.0 6.0 0.00 0.00 0.00 27 1011.9
20260906000112 93 241 3.0 7.0 0.00 0.00 0.00 26 1011.9
20260905234613 93 247 3.0 6.0 0.00 0.00 0.00 28 1011.9
20260905233101 93 321 2.0 5.0 0.00 0.00 0.00 27 1011.8
20260905231600 93 287 3.0 7.0 0.00 0.00 0.00 28 1011.8
20260905230130 94 266 2.0 9.0 0.00 0.00 0.00 29 1011.9
20260905224602 94 203 3.0 7.0 0.00 0.00 0.00 29 1011.9
20260905223101 94 280 3.0 8.0 0.00 0.00 0.00 31 1011.9
20260905221603 94 208 3.0 9.0 0.00 0.00 0.00 29 1012.0
20260905220056 94 278 3.0 8.0 0.00 0.00 0.00 28 1012.1
20260905214554 94 257 4.0 9.0 0.00 0.00 0.00 26 1012.2
20260905213101 95 222 2.0 7.0 0.00 0.00 0.00 30 1012.4
20260905211558 96 219 2.0 6.0 0.00 0.00 0.00 20 1012.5
20260905204602 95 212 0.0 6.0 0.00 0.00 0.00 18 1012.9
20260905203102 94 181 2.0 5.0 0.00 0.00 0.00 16 1013.0
20260905201608 93 248 3.0 8.0 0.00 0.00 0.00 15 1013.2
20260905200105 93 265 2.0 5.0 0.00 0.00 0.00 16 1013.4
20260905194602 91 13 0.0 4.0 0.00 0.00 0.00 20 1013.4
20260905193112 90 53 1.0 4.0 0.00 0.00 0.00 22 1013.8
20260905191554 89 206 1.0 3.0 0.00 0.00 0.00 21 1014.1
20260905190100 88 224 0.0 4.0 0.00 0.00 0.00 21 1014.0
20260905184604 88 189 1.0 4.0 0.00 0.00 0.00 21 1014.1
20260905183106 87 0 0.0 2.0 0.00 0.00 0.00 24 1014.1
20260905181601 86 330 2.0 3.0 0.00 0.00 0.00 25 1014.2
20260905180100 85 187 1.0 3.0 0.00 0.00 0.00 26 1014.4
20260905174613 84 0 1.0 2.0 0.00 0.00 0.00 28 1014.4
20260905173054 81 189 1.0 2.0 0.00 0.00 0.00 30 1014.3
20260905171607 80 0 0.0 2.0 0.00 0.00 0.00 33 1014.1
20260905170057 79 0 1.0 2.0 0.00 0.00 0.00 37 1014.1
20260905164554 77 307 0.0 1.0 0.00 0.00 0.00 37 1014.1
20260905163056 76 45 0.0 1.0 0.00 0.00 0.00 38 1014.0
20260905161555 74 49 1.0 2.0 0.00 0.00 0.00 38 1014.0
20260905160055 73 0 0.0 0.0 0.00 0.00 0.00 44 1014.2
20260905154608 71 0 0.0 1.0 0.00 0.00 0.00 49 1014.2
20260905153101 69 0 0.0 2.0 0.00 0.00 0.00 51 1014.1
20260905151601 67 0 0.0 2.0 0.00 0.00 0.00 55 1014.0
20260905150105 64 0 0.0 1.0 0.00 0.00 0.00 63 1013.9
20260905144554 60 0 0.0 0.0 0.00 0.00 0.00 75 1013.7
20260905143103 58 0 0.0 1.0 0.00 0.00 0.00 82 1013.6
20260905141556 56 0 0.0 0.0 0.00 0.00 0.00 85 1013.4
20260905134559 55 0 0.0 0.0 0.00 0.00 0.00 85 1013.3
20260905133100 55 0 0.0 0.0 0.00 0.00 0.00 85 1013.0
20260905131601 55 0 0.0 0.0 0.00 0.00 0.00 86 1012.9
20260905130101 55 0 0.0 0.0 0.00 0.00 0.00 86 1013.1
20260905124603 55 0 0.0 0.0 0.00 0.00 0.00 87 1012.7
20260905123101 55 0 0.0 1.0 0.00 0.00 0.00 87 1012.7
20260905121603 55 0 0.0 0.0 0.00 0.00 0.00 86 1012.7
20260905120100 55 0 0.0 0.0 0.00 0.00 0.00 86 1012.6
20260905114556 56 0 0.0 0.0 0.00 0.00 0.00 85 1012.6